Location: Home
(42.5358°N, 72.7383°W)
Time: 22:39:21
(UTC-04:00)

COSMOS 1275 DEB - Visible Passes

Search period start: 30 June 2022 00:00
Search period end: 10 July 2022 00:00
Orbit: 792 x 807 km, 82.9° (Epoch: 15 June)

Date Brightness Start Highest point End Pass type
(mag) Time Alt. Az. Time Alt. Az. Time Alt. Az.
30 Jun ? 21:49:55 10° WNW 21:51:33 11° W 21:53:10 10° W visible
01 Jul ? 21:21:08 10° NW 21:24:38 18° W 21:28:07 10° WSW visible
05 Jul ? 21:15:35 10° WNW 21:16:59 11° W 21:18:23 10° W visible
